This is the latest recevied weather packets stored in our database for station/object DO1MIT-10. If no packets are shown the sender has not sent any weather packets the latest 10 day(s).
| Time | Temp. | Humidity | Pressure | Rain* | Wind** | Luminosity | Snow |
|---|---|---|---|---|---|---|---|
| 1787782101 | 14.44° C | 83% | 1022 hPa | - | - | - | - |
| 1787781201 | 14.44° C | 82% | 1022 hPa | - | - | - | - |
| 1787780301 | 15° C | 82% | 1022 hPa | - | - | - | - |
| 1787779401 | 15° C | 82% | 1022.2 hPa | - | - | - | - |
| 1787778501 | 15° C | 82% | 1022.3 hPa | - | - | - | - |
| 1787777600 | 14.44° C | 81% | 1022.3 hPa | - | - | - | - |
| 1787776700 | 15° C | 81% | 1022.2 hPa | - | - | - | - |
| 1787775800 | 14.44° C | 80% | 1022.3 hPa | - | - | - | - |
| 1787774900 | 14.44° C | 80% | 1022.3 hPa | - | - | - | - |
| 1787774000 | 15° C | 80% | 1022.2 hPa | - | - | - | - |
| 1787773100 | 15.56° C | 79% | 1022.2 hPa | - | - | - | - |
| 1787772200 | 15° C | 78% | 1022.3 hPa | - | - | - | - |
| 1787771299 | 15° C | 78% | 1022.2 hPa | - | - | - | - |
| 1787770399 | 15.56° C | 77% | 1022.2 hPa | - | - | - | - |
| 1787769498 | 15.56° C | 76% | 1022 hPa | - | - | - | - |
| 1787768596 | 16.11° C | 76% | 1022.1 hPa | - | - | - | - |
| 1787767696 | 16.67° C | 75% | 1022 hPa | - | - | - | - |
| 1787766796 | 17.22° C | 75% | 1021.8 hPa | - | - | - | - |
| 1787765896 | 17.78° C | 74% | 1022 hPa | - | - | - | - |
| 1787764996 | 18.89° C | 73% | 1021.9 hPa | - | - | - | - |
| 1787764096 | 18.89° C | 73% | 1021.7 hPa | - | - | - | - |
| 1787763196 | 19.44° C | 71% | 1021.9 hPa | - | - | - | - |
| 1787762296 | 18.89° C | 71% | 1021.9 hPa | - | - | - | - |
| 1787761396 | 19.44° C | 71% | 1022 hPa | - | - | - | - |
| 1787760495 | 20° C | 70% | 1022 hPa | - | - | - | - |
* Rain since midnight (hover to see other rain measurements)
** Current wind speed in m/s (hover to see current wind gust speed)